Regional Weather Roundup
Issued by NWS

Home | Current Version | Previous Version | Text Only | Print | Product List | Glossary Off
Versions: 1 2 3 4 5 6 7 8 9 10 11 12 13 14 15 16 17 18 19 20 21 22 23 24 25 26 27 28 29 30 31 32 33 34 35 36 37 38 39 40 41 42 43 44 45 46 47 48 49

000
ASUS45 KBOU 300807
RWRCO

WEATHER ROUNDUP FOR COLORADO
NATIONAL WEATHER SERVICE DENVER/BOULDER CO
200 AM MDT SUN AUG 30 2015

NOTE: "FAIR" INDICATES FEW OR NO CLOUDS BELOW 12000 FEET WITH NO
SIGNIFICANT WEATHER AND/OR OBSTRUCTIONS TO VISIBILITY.

COZ001>005-013-030-031-300900-
...NORTHWEST COLORADO...

CITY           SKY/WX    TMP DP  RH WIND       PRES   REMARKS
CRAIG          PTCLDY    51  44  77 CALM      30.18S
HAYDEN         NOT AVBL
MEEKER         CLEAR     54  41  61 E6        30.20F
MOUNT WERNER   NOT AVBL
STEAMBOAT SPGS PTCLDY    52  39  60 NW3       30.24S
WALDEN         PTCLDY    41  34  75 SE8       30.32F
$$

COZ006>008-011-300900-
...WEST CENTRAL VALLEYS...

CITY           SKY/WX    TMP DP  RH WIND       PRES   REMARKS
GRAND JUNCTION CLEAR     70  42  36 SE15      30.07S
MONTROSE       PTCLDY    64  42  44 SE10      30.19S
EAGLE          PTCLDY    54  41  62 E3        30.27S
RIFLE          PTCLDY    59  45  59 CALM      30.15S
DELTA          PTCLDY    65  45  48 E8        30.14S
NUCLA          PTCLDY    64  37  36 E10       30.22S
$$

COZ017>023-064>068-300900-
...SOUTHWEST COLORADO...

CITY           SKY/WX    TMP DP  RH WIND       PRES   REMARKS
DURANGO        CLEAR     56  45  66 CALM      30.30S
CORTEZ         MOCLDY    59  45  59 MISG      30.20S
PAGOSA SPRINGS CLEAR     52  44  72 CALM      30.39F
TELLURIDE      CLEAR     56  40  55 SE9       30.47S
WOLF CREEK PAS CLEAR     45  37  76 SW18      30.70S
$$

COZ009-010-012-014-032>034-037-058>063-300900-
...CENTRAL COLORADO...

CITY           SKY/WX    TMP DP  RH WIND       PRES   REMARKS
ASPEN          CLEAR     52  37  56 SW7       30.32F
BUENA VISTA    PTCLDY    49  37  63 W5        30.37S
COPPER MTN     PTCLDY    54  36  50 SW10G18   30.65F
BERTHOUD PASS  FAIR      45  34  65 W14G26    30.68F
COTTONWOOD PAS PTCLDY    59  34  38 N3        30.49F
GUNNISON       PTCLDY    50  36  57 NE6       30.39S
KREMMLING      PTCLDY    50  41  71 CALM      30.32S
LEADVILLE      PTCLDY    43  34  70 CALM      30.48F
MONARCH PASS   CLEAR     48  32  53 W17       30.75F
SALIDA         PTCLDY    59  43  55 CALM      30.40F
SUNLIGHT       PTCLDY    54  32  43 CALM      30.56F
WILKERSON PASS PTCLDY    50  32  50 SW8       30.62F
$$

COZ069>075-300900-
...SAN LUIS VALLEY/SANGRE DE CRISTO MOUNTAINS...

CITY           SKY/WX    TMP DP  RH WIND       PRES   REMARKS
ALAMOSA        CLOUDY    54  43  66 E3        30.35S
LA VETA PASS   CLEAR     50  36  57 S12G18    30.52S
SAGUACHE       PTCLDY    50  41  71 N5        30.39F
$$

COZ035-036-038>040-300900-
...NORTHERN COLORADO FRONT RANGE...

CITY           SKY/WX    TMP DP  RH WIND       PRES   REMARKS
DENVER INTL AP PTCLDY    70  38  31 S20       30.09F
DMNS CITY PARK   N/A     71  39  30 SE8       30.10S
AURORA         PTCLDY    68  40  35 S16       30.12F
FRONT RANGE AP NOT AVBL
ERIE MUNI ARPT PTCLDY    64  46  51 CALM      30.08S
BOULDER MUN AP PTCLDY    64  45  48 CALM      30.08F
CENTENNIAL     PTCLDY    67  39  35 SE12      30.15F
BROOMFIELD     PTCLDY    70  45  40 CALM      30.12S
FORT COLLINS   PTCLDY    61  46  59 N8        30.09F
LONGMONT       PTCLDY    61  48  63 CALM      30.09F
$$

COZ041-046-047-076>085-087-088-300900-
...PIKES PEAK/PALMER DIVIDE AND SOUTHERN FOOTHILLS...

CITY           SKY/WX    TMP DP  RH WIND       PRES   REMARKS
COLO. SPRINGS  MOCLDY    60  40  47 E8        30.23F
A. F. ACADEMY  PTCLDY    53  40  61 N8        30.24F
ELLICOTT       PTCLDY   N/A N/A N/A S10       30.21F
FALCON         PTCLDY    57  41  54 MISG      30.28F
FORT CARSON    CLOUDY    59  44  57 NW9       30.19F
LIMON          CLEAR     53  43  68 CALM      30.18F
MONUMENT HILL  MOCLDY    59  43  55 S12       30.26F
TRINIDAD       CLEAR     65  48  54 W6        30.21F
$$

COZ042>045-048>051-090-091-300900-
...NORTHEAST COLORADO...

CITY           SKY/WX    TMP DP  RH WIND       PRES   REMARKS
GREELEY ARPT     N/A     59  45  58 NE6       30.07F VSB 3/4
AKRON          PTCLDY    66  44  45 S15       30.11F
BURLINGTON     CLEAR     63  45  51 S12       30.13F
WRAY           CLEAR     65  44  47 W6        30.08F
STERLING       PTCLDY    63  45  51 SW5       30.06F
HOLYOKE        CLEAR     59  50  72 SW5       30.08F
FORT MORGAN    PTCLDY    63  41  43 S8        30.09F
$$

COZ086-089-092>099-300900-
...SOUTHEAST COLORADO...

CITY           SKY/WX    TMP DP  RH WIND       PRES   REMARKS
PUEBLO         PTCLDY    64  46  52 CALM      30.11S
LA JUNTA       CLEAR     70  43  37 SE8       30.11F
LAMAR          CLEAR     64  47  53 S9        30.10S
SPRINGFIELD      N/A     55  47  74 SW6       30.17
$$




USA.gov is the U.S. government's official web portal to all federal, state and local government web resources and services.